This is the latest recevied weather packets stored in our database for station/object KN6ZYR. If no packets are shown the sender has not sent any weather packets the latest 10 day(s).
| Time | Temp. | Humidity | Pressure | Rain* | Wind** | Luminosity | Snow |
|---|---|---|---|---|---|---|---|
| 1777996263 | 10° C | 76% | 1016.6 hPa | 0 mm | - | 146 W/m² | - |
| 1777995958 | 10° C | 77% | 1016.6 hPa | 0 mm | - | 204 W/m² | - |
| 1777995655 | 9.44° C | 77% | 1016.6 hPa | 0 mm | - | 205 W/m² | - |
| 1777995352 | 9.44° C | 77% | 1016.6 hPa | 0 mm | - | 169 W/m² | - |
| 1777995049 | 9.44° C | 77% | 1016.6 hPa | 0 mm | - | 178 W/m² | - |
| 1777994746 | 9.44° C | 79% | 1016.2 hPa | 0 mm | - | 145 W/m² | - |
| 1777994442 | 8.89° C | 79% | 1016.4 hPa | 0 mm | - | 145 W/m² | - |
| 1777994137 | 8.89° C | 80% | 1016.3 hPa | 0 mm | - | 94 W/m² | - |
| 1777993835 | 8.89° C | 79% | 1016.4 hPa | 0 mm | - | 71 W/m² | - |
| 1777993531 | 8.89° C | 78% | 1015.8 hPa | 0 mm | - | 88 W/m² | - |
| 1777993227 | 8.89° C | 80% | 1015.7 hPa | 0 mm | - | 134 W/m² | - |
| 1777992924 | 8.89° C | 80% | 1015.7 hPa | 0 mm | - | 159 W/m² | - |
| 1777992622 | 8.33° C | 82% | 1016.2 hPa | 0 mm | - | 136 W/m² | - |
| 1777992319 | 8.89° C | 84% | 1015.9 hPa | 0 mm | - | 125 W/m² | - |
| 1777992016 | 8.33° C | 84% | 1015.9 hPa | 0 mm | - | 141 W/m² | - |
| 1777991714 | 8.33° C | 85% | 1015.8 hPa | 0 mm | - | 178 W/m² | - |
| 1777991411 | 8.33° C | 86% | 1015.8 hPa | 0 mm | - | 127 W/m² | - |
| 1777991108 | 7.78° C | 87% | 1015.8 hPa | 0 mm | - | 114 W/m² | - |
| 1777990806 | 7.78° C | 87% | 1016.2 hPa | 0 mm | - | 88 W/m² | - |
| 1777990503 | 7.78° C | 87% | 1015.9 hPa | 0 mm | - | 73 W/m² | - |
| 1777989895 | 7.78° C | 88% | 1015.8 hPa | 0 mm | - | 96 W/m² | - |
| 1777989592 | 7.78° C | 87% | 1015.6 hPa | 1.78 mm | - | 73 W/m² | - |
| 1777989289 | 7.78° C | 88% | 1015.7 hPa | 1.78 mm | - | 61 W/m² | - |
| 1777988985 | 7.78° C | 89% | 1015.6 hPa | 0 mm | - | 52 W/m² | - |
| 1777988682 | 7.22° C | 90% | 1015.5 hPa | 0 mm | - | 43 W/m² | - |
* Rain latest hour (hover to see other rain measurements)
** Current wind speed in m/s (hover to see current wind gust speed)